Change the Weather History Date:

Friday, February 22, 2013

  Actual Average (KPCZ) Record (KPCZ)
Temperature  
Mean Temperature 24 °F -  
Max Temperature 28 °F 34 °F 53 °F (1961)
Min Temperature 19 °F 18 °F -14 °F (1965)
Degree Days  
Heating Degree Days 42    
Moisture  
Dew Point 21 °F    
Average Humidity 90    
Maximum Humidity 100    
Minimum Humidity 78    
Precipitation  
Precipitation 0.00 in - - ()
Sea Level Pressure  
Sea Level Pressure 29.87 in    
Wind  
Wind Speed 0 mph (North)    
Max Wind Speed 0 mph    
Max Gust Speed -    
Visibility 4 miles    
Events Fog , Snow    
Averages and records for this station are not official NWS values.
T = Trace of Precipitation, MM = Missing Value Source: NWS Daily Summary

Daily Weather History Graph

Daily Weather History Graph

Search for Another Location

Airport or City:

Trip Planner

Search our weather history database for the weather conditions in past years. The results will help you decide how hot, cold, wet, or windy it might be!

Date:

Astronomy

Feb. 22, 2013 Rise Set
Actual Time 6:45 AM CST 5:36 PM CST
Civil Twilight 6:16 AM CST 6:05 PM CST
Nautical Twilight 5:42 AM CST 6:39 PM CST
Astronomical Twilight 5:09 AM CST 7:12 PM CST
Moon 2:44 PM CST (2/22) 4:34 AM CST (2/22)
Length of Visible Light 11h 49m
Length of Day
10h 51m
Waxing Gibbous, 90% of the Moon is Illuminated
Feb 22
Waxing Gibbous
Feb 25
Full
Mar 4
Last Quarter
Mar 11
New
Mar 19
First Quarter

Hourly Weather History & Observations

Time (CST) Temp. Dew Point Humidity Pressure Visibility Wind Dir Wind Speed Gust Speed Precip Events Conditions
12:56 AM 22.1 °F 16.2 °F 78% 30.11 in 10.0 mi Calm Calm - N/A   Overcast
1:15 AM 21.2 °F 17.6 °F 86% 30.06 in 1.8 mi Calm Calm - 0.00 in Snow Light Snow
1:18 AM 21.2 °F 17.6 °F 86% 30.06 in 1.2 mi Calm Calm - 0.00 in Snow Light Snow
1:30 AM 21.2 °F 17.6 °F 86% 30.05 in 0.8 mi Calm Calm - 0.00 in Snow Light Snow
1:38 AM 21.2 °F 17.6 °F 86% 30.04 in 0.8 mi Calm Calm - 0.00 in Snow Light Snow
1:43 AM 21.2 °F 17.6 °F 86% 30.04 in 1.2 mi Calm Calm - 0.00 in Snow Light Snow
1:56 AM 21.0 °F 18.1 °F 89% 30.07 in 0.8 mi Calm Calm - 0.00 in Snow Light Snow
2:46 AM 21.2 °F 17.6 °F 86% 29.98 in 1.0 mi Calm Calm - 0.00 in Snow Light Snow
2:56 AM 21.2 °F 17.6 °F 86% 29.96 in 1.0 mi Calm Calm - N/A Snow Light Snow
3:05 AM 19.4 °F 17.6 °F 93% 29.95 in 0.8 mi Calm Calm - 0.00 in Snow Light Snow
3:16 AM 19.4 °F 17.6 °F 93% 29.96 in 0.8 mi Calm Calm - 0.00 in Snow Light Snow
3:35 AM 19.4 °F 17.6 °F 93% 29.95 in 0.5 mi Calm Calm - 0.00 in Fog , Snow Light Snow
3:56 AM 20.1 °F 18.1 °F 92% 29.99 in 0.5 mi Calm Calm - 0.00 in Fog , Snow Light Snow
4:27 AM 19.4 °F 17.6 °F 93% 29.94 in 0.8 mi Calm Calm - 0.00 in Snow Light Snow
4:48 AM 19.4 °F 17.6 °F 93% 29.93 in 1.0 mi Calm Calm - 0.00 in Snow Light Snow
4:56 AM 20.1 °F 18.1 °F 92% 29.96 in 1.0 mi Calm Calm - 0.00 in Snow Light Snow
5:05 AM 19.4 °F 17.6 °F 93% 29.92 in 1.5 mi Calm Calm - 0.00 in Snow Light Snow
5:09 AM 19.4 °F 17.6 °F 93% 29.92 in 2.0 mi Calm Calm - 0.00 in Snow Light Snow
5:20 AM 19.4 °F 17.6 °F 93% 29.92 in 1.5 mi Calm Calm - 0.00 in Snow Light Snow
5:26 AM 19.4 °F 17.6 °F 93% 29.92 in 2.0 mi Calm Calm - 0.00 in Snow Light Snow
5:56 AM 19.4 °F 17.6 °F 93% 29.91 in 2.0 mi Calm Calm - N/A Snow Light Snow
6:10 AM 19.4 °F 17.6 °F 93% 29.90 in 2.5 mi Calm Calm - 0.00 in Snow Light Snow
6:18 AM 19.4 °F 17.6 °F 93% 29.90 in 4.0 mi Calm Calm - 0.00 in Snow Light Snow
6:31 AM 19.4 °F 17.6 °F 93% 29.89 in 4.0 mi Calm Calm - 0.00 in Snow Light Snow
6:56 AM 21.0 °F 18.1 °F 89% 29.92 in 7.0 mi Calm Calm - 0.00 in Snow Light Snow
7:23 AM 21.2 °F 17.6 °F 86% 29.88 in 10.0 mi Calm Calm - 0.00 in   Overcast
7:56 AM 22.1 °F 19.0 °F 88% 29.91 in 10.0 mi Calm Calm - 0.00 in   Overcast
8:56 AM 23.0 °F 19.4 °F 86% 29.85 in 5.0 mi Calm Calm - N/A   Overcast
9:08 AM 23.0 °F 19.4 °F 86% 29.85 in 4.0 mi Calm Calm - 0.00 in   Overcast
9:45 AM 24.8 °F 21.2 °F 86% 29.85 in 2.5 mi Calm Calm - 0.00 in   Overcast
9:56 AM 24.1 °F 21.0 °F 88% 29.88 in 2.5 mi Calm Calm - 0.00 in Snow Light Snow
10:46 AM 24.8 °F 21.2 °F 86% 29.84 in 2.5 mi Calm Calm - 0.00 in Snow Light Snow
10:56 AM 25.2 °F 23.0 °F 91% 29.87 in 3.0 mi Calm Calm - 0.00 in Snow Light Snow
11:18 AM 24.8 °F 23.0 °F 93% 29.84 in 2.5 mi Calm Calm - 0.00 in Snow Light Snow
11:45 AM 26.6 °F 23.0 °F 86% 29.83 in 4.0 mi Calm Calm - 0.00 in Snow Light Snow
11:56 AM 26.6 °F 23.0 °F 86% 29.83 in 4.0 mi Calm Calm - N/A Snow Light Snow
12:14 PM 26.6 °F 23.0 °F 86% 29.82 in 2.5 mi Calm Calm - 0.00 in Snow Light Snow
12:24 PM 26.6 °F 23.0 °F 86% 29.82 in 2.5 mi Calm Calm - 0.00 in Snow Light Snow
12:44 PM 26.6 °F 23.0 °F 86% 29.80 in 3.0 mi Calm Calm - 0.00 in Snow Light Snow
12:56 PM 27.1 °F 23.0 °F 84% 29.83 in 4.0 mi Calm Calm - 0.00 in Snow Light Snow
1:15 PM 26.6 °F 24.8 °F 93% 29.79 in 4.0 mi Calm Calm - 0.00 in Snow Light Snow
1:22 PM 26.6 °F 23.0 °F 86% 29.79 in 2.5 mi Calm Calm - 0.00 in Snow Light Snow
1:30 PM 26.6 °F 23.0 °F 86% 29.79 in 1.8 mi Calm Calm - 0.00 in Snow Light Snow
1:46 PM 26.6 °F 24.8 °F 93% 29.78 in 1.2 mi Calm Calm - 0.00 in Snow Light Snow
1:56 PM 27.1 °F 24.1 °F 88% 29.81 in 1.2 mi Calm Calm - 0.00 in Snow Light Snow
2:05 PM 26.6 °F 24.8 °F 93% 29.78 in 1.8 mi Calm Calm - 0.00 in Snow Light Snow
2:12 PM 26.6 °F 24.8 °F 93% 29.79 in 2.5 mi Calm Calm - 0.00 in Snow Light Snow
2:19 PM 26.6 °F 24.8 °F 93% 29.79 in 3.0 mi Calm Calm - 0.00 in Snow Light Snow
2:39 PM 26.6 °F 24.8 °F 93% 29.79 in 4.0 mi Calm Calm - 0.00 in Snow Light Snow
2:56 PM 26.6 °F 24.8 °F 93% 29.79 in 4.0 mi Calm Calm - N/A Snow Light Snow
3:03 PM 26.6 °F 24.8 °F 93% 29.79 in 2.5 mi Calm Calm - 0.00 in Snow Light Snow
3:22 PM 28.4 °F 24.8 °F 86% 29.79 in 2.0 mi Calm Calm - 0.00 in Snow Light Snow
3:42 PM 26.6 °F 24.8 °F 93% 29.80 in 3.0 mi Calm Calm - 0.00 in Snow Light Snow
3:56 PM 28.0 °F 25.2 °F 89% 29.83 in 3.0 mi Calm Calm - 0.00 in Snow Light Snow
4:29 PM 26.6 °F 24.8 °F 93% 29.80 in 2.0 mi Calm Calm - 0.00 in Snow Light Snow
4:43 PM 26.6 °F 24.8 °F 93% 29.80 in 2.5 mi Calm Calm - 0.00 in Snow Light Snow
4:56 PM 27.1 °F 24.1 °F 88% 29.83 in 3.0 mi Calm Calm - 0.00 in Snow Light Snow
5:34 PM 26.6 °F 24.8 °F 93% 29.79 in 6.0 mi Calm Calm - 0.00 in   Overcast
5:45 PM 26.6 °F 24.8 °F 93% 29.80 in 8.0 mi Calm Calm - 0.00 in   Overcast
5:56 PM 24.8 °F 23.0 °F 93% 29.80 in 10.0 mi Calm Calm - N/A   Overcast
6:03 PM 24.8 °F 24.8 °F 100% 29.80 in 10.0 mi Calm Calm - N/A   Mostly Cloudy
6:22 PM 24.8 °F 23.0 °F 93% 29.81 in 6.0 mi Calm Calm - 0.00 in   Overcast
6:31 PM 24.8 °F 23.0 °F 93% 29.81 in 5.0 mi Calm Calm - 0.00 in Snow Light Snow
6:49 PM 24.8 °F 23.0 °F 93% 29.81 in 4.0 mi Calm Calm - 0.00 in Snow Light Snow
6:56 PM 25.2 °F 23.0 °F 91% 29.84 in 4.0 mi Calm Calm - 0.00 in Snow Light Snow
7:31 PM 24.8 °F 23.0 °F 93% 29.81 in 6.0 mi Calm Calm - 0.00 in Snow Light Snow
7:56 PM 23.0 °F 21.0 °F 92% 29.84 in 8.0 mi Calm Calm - 0.00 in Snow Light Snow
8:04 PM 23.0 °F 21.2 °F 93% 29.81 in 7.0 mi Calm Calm - 0.00 in Snow Light Snow
8:56 PM 24.8 °F 21.2 °F 86% 29.81 in 9.0 mi Calm Calm - N/A   Overcast
9:20 PM 24.8 °F 23.0 °F 93% 29.82 in 9.0 mi Calm Calm - 0.00 in   Overcast
9:56 PM 25.2 °F 23.0 °F 91% 29.84 in 10.0 mi Calm Calm - 0.00 in   Overcast
10:05 PM 24.8 °F 23.0 °F 93% 29.81 in 10.0 mi Calm Calm - N/A   Overcast
10:18 PM 24.8 °F 23.0 °F 93% 29.81 in 10.0 mi Calm Calm - N/A   Overcast
10:33 PM 24.8 °F 23.0 °F 93% 29.81 in 10.0 mi Calm Calm - N/A   Overcast
10:49 PM 24.8 °F 21.2 °F 86% 29.81 in 10.0 mi Calm Calm - 0.00 in   Overcast
10:56 PM 25.2 °F 22.1 °F 88% 29.84 in 10.0 mi Calm Calm - 0.00 in   Overcast
11:56 PM 24.8 °F 21.2 °F 86% 29.80 in 10.0 mi Calm Calm - N/A   Overcast